Cheboygan, MI

4:02 AM EDT on July 24, 2017 (GMT -0400)
Cheboygan

Weather History for KSLH - July, 2013

Change the Weather History Date:

Wednesday, July 10, 2013

  Actual Average (KMCD) Record (KMCD)
Temperature  
Mean Temperature 66 °F -  
Max Temperature 72 °F 71 °F 81 °F (1981)
Min Temperature 59 °F 56 °F 45 °F (1977)
Growing Degree Days 16 (Base 50)    
Moisture  
Dew Point 60 °F    
Average Humidity 75    
Maximum Humidity 95    
Minimum Humidity 54    
Precipitation  
Precipitation 0.00 in - - ()
Sea Level Pressure  
Sea Level Pressure 29.79 in    
Wind  
Wind Speed 10 mph (West)    
Max Wind Speed 22 mph    
Max Gust Speed 31 mph    
Visibility 10 miles    
Events Rain    
Averages and records for this station are not official NWS values.
T = Trace of Precipitation, MM = Missing Value Source: NWS Daily Summary

Daily Weather History Graph

Daily Weather History Graph

Search for Another Location

Airport or City:

Trip Planner

Search our weather history database for the weather conditions in past years. The results will help you decide how hot, cold, wet, or windy it might be!

Date:

Astronomy

Jul. 10, 2013 Rise Set
Actual Time 5:59 AM EDT 9:27 PM EDT
Civil Twilight 5:22 AM EDT 10:04 PM EDT
Nautical Twilight 4:33 AM EDT 10:53 PM EDT
Astronomical Twilight 3:29 AM EDT 11:56 PM EDT
Moon 8:28 AM EDT (7/10) 10:25 PM EDT (7/10)
Length of Visible Light 16h 42m
Length of Day
15h 28m
Waxing Crescent, 5% of the Moon is Illuminated
Jul 10
Waxing Crescent
Jul 15
First Quarter
Jul 22
Full
Jul 29
Last Quarter
Aug 6
New

Hourly Weather History & Observations

Time (EDT) Temp. Dew Point Humidity Pressure Visibility Wind Dir Wind Speed Gust Speed Precip Events Conditions
12:15 AM 71.6 °F 69.8 °F 94% 29.73 in 7.0 mi SSE 3.5 mph - N/A Rain Light Rain
12:35 AM 71.6 °F 69.8 °F 94% 29.71 in 7.0 mi Calm Calm - N/A Rain Light Rain
12:56 AM 71.4 °F 69.6 °F 94% 29.71 in 7.0 mi Calm Calm - N/A Rain Light Rain
1:15 AM 71.1 °F 69.4 °F 95% 29.71 in 5.0 mi Calm Calm - N/A Rain Light Rain
1:36 AM 71.2 °F 69.8 °F 95% 29.70 in 5.0 mi Calm Calm - N/A Rain Rain
1:55 AM 71.6 °F 69.8 °F 94% 29.69 in 7.0 mi WSW 4.6 mph - N/A   Light Drizzle
2:16 AM 71.6 °F 69.6 °F 93% 29.68 in 10.0 mi SW 4.6 mph - N/A   Overcast
2:35 AM 71.6 °F 69.3 °F 92% 29.67 in 10.0 mi SW 5.8 mph - N/A   Overcast
2:55 AM 71.8 °F 69.1 °F 91% 29.66 in 10.0 mi SW 6.9 mph - N/A   Overcast
3:16 AM 71.8 °F 68.4 °F 89% 29.65 in 10.0 mi SW 10.4 mph 17.3 mph N/A   Overcast
3:35 AM 71.6 °F 68.0 °F 88% 29.65 in 10.0 mi WSW 11.5 mph 23.0 mph N/A   Overcast
3:55 AM 71.2 °F 67.5 °F 88% 29.65 in 10.0 mi WSW 11.5 mph 20.7 mph N/A   Overcast
4:16 AM 71.2 °F 67.1 °F 87% 29.65 in 10.0 mi West 16.1 mph 25.3 mph N/A   Overcast
4:35 AM 70.7 °F 66.4 °F 86% 29.65 in 10.0 mi West 13.8 mph 20.7 mph N/A   Overcast
4:55 AM 70.2 °F 65.8 °F 86% 29.66 in 10.0 mi West 11.5 mph 24.2 mph N/A   Overcast
5:16 AM 69.8 °F 65.8 °F 87% 29.66 in 10.0 mi West 12.7 mph 20.7 mph N/A   Overcast
5:35 AM 69.8 °F 65.7 °F 87% 29.67 in 10.0 mi West 12.7 mph 26.5 mph N/A   Overcast
5:55 AM 69.8 °F 65.3 °F 86% 29.68 in 10.0 mi West 13.8 mph 23.0 mph N/A   Overcast
6:16 AM 69.4 °F 64.9 °F 86% 29.68 in 10.0 mi West 12.7 mph 25.3 mph N/A   Overcast
6:35 AM 69.1 °F 64.6 °F 86% 29.69 in 10.0 mi West 9.2 mph 17.3 mph N/A   Overcast
6:56 AM 68.9 °F 64.0 °F 84% 29.70 in 10.0 mi West 13.8 mph 20.7 mph N/A   Overcast
7:15 AM 68.7 °F 63.9 °F 84% 29.71 in 10.0 mi West 10.4 mph - N/A   Overcast
7:35 AM 68.9 °F 63.9 °F 84% 29.71 in 10.0 mi West 8.1 mph - N/A   Overcast
7:56 AM 68.9 °F 63.9 °F 84% 29.71 in 10.0 mi West 6.9 mph - N/A   Overcast
8:15 AM 69.6 °F 63.5 °F 81% 29.71 in 10.0 mi West 12.7 mph 18.4 mph N/A   Overcast
8:36 AM 69.3 °F 63.3 °F 81% 29.72 in 10.0 mi West 13.8 mph 17.3 mph N/A   Overcast
8:55 AM 68.9 °F 61.3 °F 77% 29.73 in 10.0 mi WNW 15.0 mph 21.9 mph N/A   Overcast
9:15 AM 68.9 °F 59.9 °F 73% 29.74 in 10.0 mi WNW 16.1 mph 24.2 mph N/A   Overcast
9:36 AM 68.4 °F 59.5 °F 73% 29.74 in 10.0 mi West 11.5 mph 19.6 mph N/A   Overcast
9:55 AM 67.5 °F 59.4 °F 75% 29.75 in 10.0 mi West 13.8 mph 24.2 mph N/A   Overcast
10:16 AM 66.7 °F 59.2 °F 77% 29.75 in 10.0 mi West 13.8 mph 21.9 mph N/A   Overcast
10:36 AM 65.8 °F 59.0 °F 79% 29.76 in 10.0 mi West 15.0 mph 23.0 mph N/A   Overcast
10:55 AM 65.3 °F 59.0 °F 80% 29.77 in 7.0 mi West 16.1 mph 21.9 mph N/A   Overcast
11:16 AM 64.4 °F 59.0 °F 83% 29.78 in 7.0 mi West 16.1 mph 21.9 mph N/A   Overcast
11:35 AM 64.9 °F 58.3 °F 79% 29.78 in 10.0 mi West 10.4 mph 23.0 mph N/A   Overcast
11:55 AM 64.9 °F 57.7 °F 77% 29.79 in 10.0 mi West 19.6 mph 26.5 mph N/A   Overcast
12:16 PM 66.0 °F 57.4 °F 74% 29.80 in 10.0 mi WNW 17.3 mph 27.6 mph N/A   Overcast
12:35 PM 68.2 °F 58.5 °F 71% 29.80 in 10.0 mi West 17.3 mph 20.7 mph N/A   Overcast
12:56 PM 66.7 °F 57.0 °F 71% 29.81 in 10.0 mi West 13.8 mph 24.2 mph N/A   Overcast
1:15 PM 66.6 °F 57.4 °F 72% 29.82 in 10.0 mi West 13.8 mph 23.0 mph N/A   Overcast
1:35 PM 69.3 °F 57.6 °F 66% 29.82 in 10.0 mi WNW 16.1 mph 25.3 mph N/A   Overcast
1:56 PM 68.7 °F 56.8 °F 66% 29.83 in 10.0 mi WNW 18.4 mph 25.3 mph N/A   Overcast
2:15 PM 69.6 °F 57.0 °F 64% 29.83 in 10.0 mi West 17.3 mph 24.2 mph N/A   Overcast
2:35 PM 71.1 °F 56.5 °F 60% 29.83 in 10.0 mi WNW 20.7 mph 26.5 mph N/A   Mostly Cloudy
2:56 PM 71.8 °F 55.8 °F 57% 29.83 in 10.0 mi West 20.7 mph 28.8 mph N/A   Scattered Clouds
3:15 PM 72.3 °F 56.5 °F 57% 29.83 in 10.0 mi WNW 21.9 mph 28.8 mph N/A   Scattered Clouds
3:36 PM 71.8 °F 55.4 °F 56% 29.84 in 10.0 mi WNW 20.7 mph 31.1 mph N/A   Scattered Clouds
3:55 PM 72.3 °F 55.9 °F 56% 29.84 in 10.0 mi West 18.4 mph 26.5 mph N/A   Scattered Clouds
4:16 PM 71.6 °F 55.8 °F 57% 29.85 in 10.0 mi WNW 19.6 mph 26.5 mph N/A   Scattered Clouds
4:35 PM 71.2 °F 54.7 °F 56% 29.85 in 10.0 mi WNW 21.9 mph 27.6 mph N/A   Scattered Clouds
4:55 PM 72.1 °F 55.2 °F 55% 29.85 in 10.0 mi WNW 19.6 mph 25.3 mph N/A   Scattered Clouds
5:16 PM 72.1 °F 55.2 °F 55% 29.85 in 10.0 mi West 16.1 mph 21.9 mph N/A   Clear
5:35 PM 72.0 °F 54.7 °F 54% 29.85 in 10.0 mi WNW 17.3 mph 24.2 mph N/A   Scattered Clouds
5:55 PM 71.8 °F 54.1 °F 54% 29.86 in 10.0 mi WNW 16.1 mph 21.9 mph N/A   Mostly Cloudy
6:16 PM 70.2 °F 54.1 °F 57% 29.85 in 10.0 mi WNW 18.4 mph 23.0 mph N/A   Overcast
6:35 PM 71.1 °F 53.8 °F 54% 29.86 in 10.0 mi WNW 21.9 mph 26.5 mph N/A   Mostly Cloudy
6:55 PM 70.2 °F 53.4 °F 55% 29.85 in 10.0 mi WNW 19.6 mph 23.0 mph N/A   Scattered Clouds
7:15 PM 70.0 °F 53.4 °F 56% 29.86 in 10.0 mi WNW 16.1 mph 23.0 mph N/A   Clear
7:35 PM 69.4 °F 52.9 °F 56% 29.87 in 10.0 mi WNW 16.1 mph 19.6 mph N/A   Clear
7:56 PM 68.9 °F 53.1 °F 57% 29.88 in 10.0 mi WNW 15.0 mph 21.9 mph N/A   Clear
8:15 PM 68.2 °F 53.6 °F 60% 29.88 in 10.0 mi WNW 13.8 mph 18.4 mph N/A   Clear
8:35 PM 67.3 °F 53.6 °F 61% 29.89 in 10.0 mi WNW 11.5 mph 16.1 mph N/A   Clear
8:56 PM 66.4 °F 53.8 °F 64% 29.90 in 10.0 mi WNW 9.2 mph - N/A   Clear
9:15 PM 64.9 °F 53.2 °F 66% 29.90 in 10.0 mi West 6.9 mph - N/A   Clear
9:35 PM 63.0 °F 53.4 °F 71% 29.90 in 10.0 mi West 4.6 mph - N/A   Clear
9:56 PM 61.7 °F 53.6 °F 75% 29.91 in 10.0 mi West 5.8 mph - N/A   Clear
10:15 PM 61.3 °F 53.8 °F 76% 29.92 in 10.0 mi West 4.6 mph - N/A   Clear
10:35 PM 61.0 °F 54.0 °F 78% 29.93 in 10.0 mi West 4.6 mph - N/A   Clear
10:56 PM 59.9 °F 53.8 °F 80% 29.93 in 10.0 mi West 4.6 mph - N/A   Clear
11:15 PM 59.9 °F 53.6 °F 80% 29.93 in 10.0 mi West 4.6 mph - N/A   Clear
11:35 PM 59.0 °F 53.2 °F 81% 29.94 in 10.0 mi West 5.8 mph - N/A   Clear
11:55 PM 59.9 °F 54.0 °F 81% 29.93 in 10.0 mi WSW 5.8 mph - N/A   Clear